Terug naar catalogus

FREGAT DEB

LostUNKNOWN
NORAD 45844·DEBRIS·🇷🇺 Russia

Gelanceerd Jul 18, 2011 vanaf Baikonur Cosmodrome

Loading…

Volgende Passages (komende 24 uur)

TLE

VerouderdSource: Space-Track

Epoch: Nov 19, 2020, 11:02 UTC

1 45844U 11037CE  20324.45972368  .00041024  00000-0  33475+0 0  9994
2 45844  51.5464  91.8843 2004029 246.1906  91.6659  9.79300372 17093

Volg FREGAT DEB in realtime met AllMySat

Download on the App Store